| time (UTC) | temp C | wind direction | speed KPH | gust KPH | rain 1hr cm | rain 24hr cm | rain mn cm | humidity % | barometer mb |
| 20260508004503 | 8 | 0 | 0.0 | 0.0 | 0.00 | 0.00 | 0.00 | 89 | 1015.7 |
| 20260508003603 | 8 | 320 | 0.0 | 3.2 | 0.00 | 0.00 | 0.00 | 90 | 1015.5 |
| 20260508002703 | 8 | 0 | 0.0 | 0.0 | 0.00 | 0.00 | 0.00 | 91 | 1015.8 |
| 20260508001803 | 8 | 0 | 0.0 | 0.0 | 0.00 | 0.00 | 0.00 | 91 | 1015.8 |
| 20260508000903 | 8 | 0 | 0.0 | 0.0 | 0.00 | 0.00 | 0.00 | 91 | 1015.7 |
| 20260508000003 | 8 | 0 | 0.0 | 0.0 | 0.00 | 0.00 | 0.00 | 91 | 1015.9 |
| 20260507235403 | 8 | 0 | 0.0 | 0.0 | 0.00 | 0.00 | 0.00 | 91 | 1016.0 |
| 20260507234503 | 8 | 0 | 0.0 | 0.0 | 0.00 | 0.00 | 0.00 | 92 | 1015.9 |
| 20260507233603 | 8 | 0 | 0.0 | 0.0 | 0.00 | 0.00 | 0.00 | 91 | 1016.0 |
| 20260507232703 | 8 | 0 | 0.0 | 0.0 | 0.00 | 0.00 | 0.00 | 91 | 1016.0 |
| 20260507231803 | 8 | 0 | 0.0 | 0.0 | 0.00 | 0.00 | 0.00 | 91 | 1016.2 |
| 20260507230903 | 8 | 0 | 0.0 | 0.0 | 0.00 | 0.00 | 0.00 | 91 | 1016.0 |
| 20260507230004 | 8 | 0 | 0.0 | 0.0 | 0.00 | 0.00 | 0.00 | 91 | 1016.2 |
| 20260507225403 | 8 | 0 | 0.0 | 0.0 | 0.00 | 0.00 | 0.00 | 90 | 1016.1 |
| 20260507224503 | 8 | 0 | 0.0 | 0.0 | 0.00 | 0.00 | 0.00 | 90 | 1016.1 |
| 20260507223603 | 8 | 0 | 0.0 | 0.0 | 0.00 | 0.00 | 0.00 | 90 | 1016.0 |
| 20260507222703 | 8 | 0 | 0.0 | 0.0 | 0.00 | 0.00 | 0.00 | 90 | 1016.2 |
| 20260507221803 | 8 | 0 | 0.0 | 0.0 | 0.00 | 0.00 | 0.00 | 90 | 1016.2 |
| 20260507220903 | 8 | 0 | 0.0 | 0.0 | 0.00 | 0.00 | 0.00 | 89 | 1016.3 |
| 20260507220024 | 8 | 0 | 0.0 | 0.0 | 0.00 | 0.00 | 0.00 | 89 | 1016.2 |
| 20260507215403 | 8 | 0 | 0.0 | 0.0 | 0.00 | 0.00 | 0.00 | 89 | 1016.1 |
| 20260507214503 | 8 | 0 | 0.0 | 0.0 | 0.00 | 0.00 | 0.00 | 89 | 1016.0 |
| 20260507213603 | 8 | 0 | 0.0 | 0.0 | 0.00 | 0.00 | 0.00 | 89 | 1016.1 |
| 20260507212703 | 8 | 0 | 0.0 | 0.0 | 0.00 | 0.00 | 0.00 | 89 | 1016.2 |
| 20260507211803 | 8 | 0 | 0.0 | 0.0 | 0.00 | 0.00 | 0.00 | 89 | 1016.1 |
| 20260507210924 | 8 | 0 | 0.0 | 0.0 | 0.00 | 0.00 | 0.00 | 88 | 1016.1 |
| 20260507210003 | 8 | 0 | 0.0 | 0.0 | 0.00 | 0.00 | 0.00 | 88 | 1016.2 |
| 20260507205403 | 8 | 0 | 0.0 | 0.0 | 0.00 | 0.00 | 0.00 | 87 | 1016.5 |
| 20260507204504 | 8 | 0 | 0.0 | 0.0 | 0.00 | 0.00 | 0.00 | 87 | 1016.4 |
| 20260507203603 | 8 | 0 | 0.0 | 0.0 | 0.00 | 0.00 | 0.00 | 86 | 1016.2 |
| 20260507202724 | 8 | 0 | 0.0 | 0.0 | 0.00 | 0.00 | 0.00 | 86 | 1016.4 |
| 20260507201803 | 8 | 0 | 0.0 | 0.0 | 0.00 | 0.00 | 0.00 | 85 | 1016.3 |
| 20260507200903 | 9 | 0 | 0.0 | 0.0 | 0.00 | 0.00 | 0.00 | 84 | 1016.0 |
| 20260507200024 | 9 | 0 | 0.0 | 0.0 | 0.00 | 0.00 | 0.00 | 83 | 1015.8 |
| 20260507195403 | 10 | 0 | 0.0 | 0.0 | 0.00 | 0.00 | 0.00 | 82 | 1015.7 |
| 20260507194503 | 10 | 0 | 0.0 | 0.0 | 0.00 | 0.00 | 0.00 | 81 | 1015.7 |
| 20260507193603 | 10 | 0 | 0.0 | 0.0 | 0.00 | 0.00 | 0.00 | 80 | 1015.4 |
| 20260507192703 | 10 | 0 | 0.0 | 0.0 | 0.00 | 0.00 | 0.00 | 78 | 1015.5 |
| 20260507191803 | 11 | 0 | 0.0 | 0.0 | 0.00 | 0.00 | 0.00 | 76 | 1015.2 |
| 20260507190924 | 11 | 0 | 0.0 | 0.0 | 0.00 | 0.00 | 0.00 | 75 | 1015.3 |
| 20260507190004 | 11 | 0 | 0.0 | 0.0 | 0.00 | 0.00 | 0.00 | 74 | 1015.2 |
| 20260507185403 | 11 | 0 | 0.0 | 0.0 | 0.00 | 0.00 | 0.00 | 74 | 1015.1 |
| 20260507184524 | 12 | 0 | 0.0 | 0.0 | 0.00 | 0.00 | 0.00 | 75 | 1015.3 |
| 20260507183602 | 12 | 0 | 0.0 | 0.0 | 0.00 | 0.00 | 0.00 | 74 | 1015.4 |
| 20260507182703 | 13 | 0 | 0.0 | 0.0 | 0.00 | 0.00 | 0.00 | 71 | 1015.3 |
| 20260507181803 | 14 | 87 | 0.0 | 11.3 | 0.00 | 0.00 | 0.00 | 69 | 1015.4 |
| 20260507180903 | 14 | 0 | 0.0 | 0.0 | 0.00 | 0.00 | 0.00 | 67 | 1015.2 |
| 20260507180024 | 15 | 0 | 0.0 | 0.0 | 0.00 | 0.00 | 0.00 | 66 | 1015.1 |
| 20260507175403 | 14 | 0 | 0.0 | 0.0 | 0.00 | 0.00 | 0.00 | 66 | 1015.3 |
| 20260507174503 | 14 | 300 | 0.0 | 3.2 | 0.00 | 0.00 | 0.00 | 66 | 1015.3 |
| 20260507173603 | 14 | 0 | 0.0 | 0.0 | 0.00 | 0.00 | 0.00 | 66 | 1015.3 |
| 20260507172703 | 13 | 148 | 0.0 | 3.2 | 0.00 | 0.00 | 0.00 | 66 | 1015.5 |
| 20260507171802 | 13 | 120 | 0.0 | 3.2 | 0.00 | 0.00 | 0.00 | 70 | 1015.5 |
| 20260507170903 | 13 | 0 | 0.0 | 0.0 | 0.00 | 0.00 | 0.00 | 69 | 1015.6 |
| 20260507170003 | 13 | 268 | 0.0 | 3.2 | 0.00 | 0.00 | 0.00 | 68 | 1015.5 |
| 20260507165403 | 13 | 135 | 0.0 | 3.2 | 0.00 | 0.00 | 0.00 | 66 | 1015.6 |
| 20260507164503 | 13 | 260 | 0.0 | 3.2 | 0.00 | 0.00 | 0.00 | 67 | 1015.7 |
| 20260507163603 | 13 | 91 | 1.6 | 11.3 | 0.00 | 0.00 | 0.00 | 66 | 1015.8 |
| 20260507162724 | 13 | 0 | 0.0 | 0.0 | 0.00 | 0.00 | 0.00 | 61 | 1015.9 |
| 20260507161803 | 14 | 104 | 0.0 | 11.3 | 0.00 | 0.00 | 0.00 | 61 | 1015.8 |
| 20260507160903 | 13 | 69 | 0.0 | 3.2 | 0.00 | 0.00 | 0.00 | 62 | 1016.1 |
| 20260507160003 | 14 | 16 | 0.0 | 11.3 | 0.00 | 0.00 | 0.00 | 63 | 1016.3 |
| 20260507155403 | 15 | 35 | 0.0 | 11.3 | 0.00 | 0.00 | 0.00 | 61 | 1016.5 |
| 20260507154503 | 16 | 0 | 0.0 | 0.0 | 0.00 | 0.00 | 0.00 | 58 | 1016.7 |
| 20260507153603 | 16 | 300 | 0.0 | 4.8 | 0.00 | 0.00 | 0.00 | 60 | 1016.8 |
| 20260507152703 | 16 | 87 | 0.0 | 1.6 | 0.00 | 0.00 | 0.00 | 57 | 1016.9 |
| 20260507151803 | 15 | 46 | 0.0 | 3.2 | 0.00 | 0.00 | 0.00 | 60 | 1016.7 |
| 20260507150903 | 15 | 31 | 0.0 | 16.1 | 0.00 | 0.00 | 0.00 | 61 | 1016.6 |
| 20260507150003 | 15 | 354 | 0.0 | 1.6 | 0.00 | 0.00 | 0.00 | 60 | 1016.5 |
| 20260507145403 | 15 | 311 | 0.0 | 11.3 | 0.00 | 0.00 | 0.00 | 62 | 1016.5 |
| 20260507144503 | 16 | 0 | 0.0 | 0.0 | 0.00 | 0.00 | 0.00 | 60 | 1016.6 |
| 20260507143603 | 15 | 149 | 0.0 | 3.2 | 0.00 | 0.00 | 0.00 | 60 | 1016.6 |
| 20260507142703 | 13 | 113 | 1.6 | 16.1 | 0.00 | 0.00 | 0.00 | 63 | 1016.7 |
| 20260507141803 | 15 | 70 | 0.0 | 14.5 | 0.00 | 0.00 | 0.00 | 59 | 1016.7 |
| 20260507140903 | 15 | 84 | 0.0 | 11.3 | 0.00 | 0.00 | 0.00 | 61 | 1016.7 |
| 20260507140003 | 15 | 132 | 0.0 | 4.8 | 0.00 | 0.00 | 0.00 | 59 | 1016.6 |
| 20260507135403 | 15 | 123 | 1.6 | 19.3 | 0.00 | 0.00 | 0.00 | 61 | 1016.5 |
| 20260507134524 | 15 | 6 | 0.0 | 11.3 | 0.00 | 0.00 | 0.00 | 61 | 1016.5 |
| 20260507133603 | 16 | 39 | 0.0 | 11.3 | 0.00 | 0.00 | 0.00 | 62 | 1016.5 |
| 20260507132703 | 16 | 263 | 0.0 | 4.8 | 0.00 | 0.00 | 0.00 | 61 | 1016.5 |
| 20260507131803 | 15 | 112 | 1.6 | 16.1 | 0.00 | 0.00 | 0.00 | 63 | 1016.3 |
| 20260507130903 | 13 | 107 | 0.0 | 3.2 | 0.00 | 0.00 | 0.00 | 66 | 1016.3 |
| 20260507130003 | 13 | 152 | 0.0 | 8.0 | 0.00 | 0.00 | 0.00 | 68 | 1016.3 |
| 20260507125403 | 12 | 0 | 0.0 | 0.0 | 0.00 | 0.00 | 0.00 | 68 | 1016.2 |
| 20260507124503 | 13 | 54 | 0.0 | 11.3 | 0.00 | 0.00 | 0.00 | 70 | 1016.4 |
| 20260507123624 | 13 | 336 | 0.0 | 1.6 | 0.00 | 0.00 | 0.00 | 70 | 1016.1 |
| 20260507122724 | 13 | 86 | 0.0 | 11.3 | 0.00 | 0.00 | 0.00 | 70 | 1016.3 |
| 20260507121803 | 13 | 0 | 0.0 | 0.0 | 0.00 | 0.00 | 0.00 | 70 | 1016.1 |
| 20260507120903 | 13 | 113 | 0.0 | 14.5 | 0.00 | 0.00 | 0.00 | 71 | 1016.0 |
| 20260507120003 | 13 | 0 | 0.0 | 0.0 | 0.00 | 0.00 | 0.00 | 71 | 1015.9 |
| 20260507115424 | 13 | 101 | 0.0 | 4.8 | 0.00 | 0.00 | 0.00 | 72 | 1016.1 |
| 20260507114524 | 13 | 0 | 0.0 | 0.0 | 0.00 | 0.00 | 0.00 | 71 | 1016.3 |
| 20260507113624 | 13 | 357 | 0.0 | 3.2 | 0.00 | 0.00 | 0.00 | 71 | 1016.1 |
| 20260507112703 | 13 | 0 | 0.0 | 0.0 | 0.00 | 0.00 | 0.00 | 70 | 1016.0 |
| 20260507111803 | 15 | 196 | 0.0 | 4.8 | 0.00 | 0.00 | 0.00 | 68 | 1016.0 |
| 20260507110924 | 15 | 0 | 0.0 | 0.0 | 0.00 | 0.00 | 0.00 | 65 | 1015.8 |
| 20260507110003 | 13 | 0 | 0.0 | 0.0 | 0.00 | 0.00 | 0.00 | 68 | 1016.0 |
| 20260507105403 | 13 | 357 | 0.0 | 3.2 | 0.00 | 0.00 | 0.00 | 68 | 1015.8 |
| 20260507104503 | 13 | 55 | 0.0 | 4.8 | 0.00 | 0.00 | 0.00 | 69 | 1016.0 |
| 20260507103603 | 13 | 55 | 0.0 | 4.8 | 0.00 | 0.00 | 0.00 | 69 | 1015.8 |
| 20260507102723 | 13 | 0 | 0.0 | 0.0 | 0.00 | 0.00 | 0.00 | 69 | 1016.0 |
| 20260507101803 | 13 | 86 | 0.0 | 3.2 | 0.00 | 0.00 | 0.00 | 65 | 1015.8 |
| 20260507100903 | 15 | 42 | 0.0 | 3.2 | 0.00 | 0.00 | 0.00 | 62 | 1015.8 |
| 20260507100002 | 16 | 54 | 0.0 | 3.2 | 0.00 | 0.00 | 0.00 | 54 | 1016.1 |
| 20260507095402 | 15 | 0 | 0.0 | 0.0 | 0.00 | 0.00 | 0.00 | 57 | 1015.8 |
| 20260507094502 | 15 | 267 | 0.0 | 3.2 | 0.00 | 0.00 | 0.00 | 59 | 1016.2 |
| 20260507093624 | 13 | 99 | 0.0 | 4.8 | 0.00 | 0.00 | 0.00 | 61 | 1015.8 |
| 20260507092703 | 14 | 111 | 0.0 | 8.0 | 0.00 | 0.00 | 0.00 | 61 | 1016.0 |
| 20260507091803 | 13 | 77 | 0.0 | 3.2 | 0.00 | 0.00 | 0.00 | 59 | 1015.9 |
| 20260507090902 | 14 | 145 | 1.6 | 16.1 | 0.00 | 0.00 | 0.00 | 64 | 1015.8 |
| 20260507090003 | 14 | 129 | 0.0 | 1.6 | 0.00 | 0.00 | 0.00 | 64 | 1016.0 |
| 20260507085424 | 13 | 119 | 0.0 | 4.8 | 0.00 | 0.00 | 0.00 | 64 | 1015.9 |
| 20260507084502 | 13 | 97 | 0.0 | 3.2 | 0.00 | 0.00 | 0.00 | 64 | 1016.0 |
| 20260507083603 | 13 | 0 | 0.0 | 0.0 | 0.00 | 0.00 | 0.00 | 65 | 1016.1 |
| 20260507082702 | 13 | 302 | 0.0 | 4.8 | 0.00 | 0.00 | 0.00 | 66 | 1016.0 |
| 20260507081803 | 12 | 357 | 0.0 | 4.8 | 0.00 | 0.00 | 0.00 | 67 | 1016.0 |
| 20260507080903 | 13 | 100 | 0.0 | 14.5 | 0.00 | 0.00 | 0.00 | 66 | 1015.9 |
| 20260507080003 | 12 | 0 | 0.0 | 0.0 | 0.00 | 0.00 | 0.00 | 68 | 1015.9 |
| 20260507075403 | 12 | 4 | 0.0 | 4.8 | 0.00 | 0.00 | 0.00 | 68 | 1015.9 |
| 20260507074502 | 13 | 0 | 0.0 | 0.0 | 0.00 | 0.00 | 0.00 | 69 | 1015.9 |
| 20260507073602 | 12 | 135 | 0.0 | 3.2 | 0.00 | 0.00 | 0.00 | 70 | 1015.8 |
| 20260507072723 | 12 | 0 | 0.0 | 0.0 | 0.00 | 0.00 | 0.00 | 72 | 1015.9 |
| 20260507071802 | 12 | 0 | 0.0 | 0.0 | 0.00 | 0.00 | 0.00 | 74 | 1016.0 |
| 20260507070902 | 11 | 0 | 0.0 | 0.0 | 0.00 | 0.00 | 0.00 | 75 | 1015.6 |
| 20260507070003 | 10 | 0 | 0.0 | 0.0 | 0.00 | 0.00 | 0.00 | 78 | 1015.9 |
| 20260507065424 | 10 | 0 | 0.0 | 0.0 | 0.00 | 0.00 | 0.00 | 78 | 1015.7 |
| 20260507064502 | 10 | 0 | 0.0 | 0.0 | 0.00 | 0.00 | 0.00 | 78 | 1015.6 |
| 20260507063602 | 10 | 0 | 0.0 | 0.0 | 0.00 | 0.00 | 0.00 | 79 | 1015.8 |
| 20260507062702 | 10 | 0 | 0.0 | 0.0 | 0.00 | 0.00 | 0.00 | 80 | 1015.7 |
| 20260507061803 | 9 | 0 | 0.0 | 0.0 | 0.00 | 0.00 | 0.00 | 82 | 1015.6 |
| 20260507060903 | 8 | 0 | 0.0 | 0.0 | 0.00 | 0.00 | 0.00 | 85 | 1015.6 |
| 20260507060003 | 8 | 0 | 0.0 | 0.0 | 0.00 | 0.00 | 0.00 | 91 | 1015.6 |
| 20260507055402 | 7 | 0 | 0.0 | 0.0 | 0.00 | 0.00 | 0.00 | 93 | 1015.5 |
| 20260507054503 | 6 | 0 | 0.0 | 0.0 | 0.00 | 0.00 | 0.00 | 94 | 1015.5 |
| 20260507053603 | 6 | 0 | 0.0 | 0.0 | 0.00 | 0.00 | 0.00 | 94 | 1015.4 |
| 20260507052703 | 6 | 0 | 0.0 | 0.0 | 0.00 | 0.00 | 0.00 | 95 | 1015.6 |
| 20260507051802 | 6 | 0 | 0.0 | 0.0 | 0.00 | 0.00 | 0.00 | 95 | 1015.5 |
| 20260507050924 | 5 | 0 | 0.0 | 0.0 | 0.00 | 0.00 | 0.00 | 94 | 1015.5 |
| 20260507050024 | 5 | 0 | 0.0 | 0.0 | 0.00 | 0.00 | 0.00 | 95 | 1015.5 |
| 20260507045403 | 5 | 0 | 0.0 | 0.0 | 0.00 | 0.00 | 0.00 | 94 | 1015.4 |
| 20260507044503 | 5 | 0 | 0.0 | 0.0 | 0.00 | 0.00 | 0.00 | 94 | 1015.3 |
| 20260507043624 | 5 | 0 | 0.0 | 0.0 | 0.00 | 0.00 | 0.00 | 94 | 1015.5 |
| 20260507042703 | 5 | 0 | 0.0 | 0.0 | 0.00 | 0.00 | 0.00 | 94 | 1015.5 |
| 20260507041803 | 5 | 0 | 0.0 | 0.0 | 0.00 | 0.00 | 0.00 | 94 | 1015.5 |
| 20260507040902 | 5 | 0 | 0.0 | 0.0 | 0.00 | 0.00 | 0.00 | 94 | 1015.3 |
| 20260507040024 | 5 | 0 | 0.0 | 0.0 | 0.00 | 0.00 | 0.00 | 93 | 1015.4 |
| 20260507035403 | 5 | 0 | 0.0 | 0.0 | 0.00 | 0.00 | 0.00 | 93 | 1015.1 |
| 20260507034503 | 5 | 0 | 0.0 | 0.0 | 0.00 | 0.00 | 0.00 | 93 | 1015.2 |
| 20260507033603 | 5 | 0 | 0.0 | 0.0 | 0.00 | 0.00 | 0.00 | 93 | 1015.2 |
| 20260507032703 | 5 | 0 | 0.0 | 0.0 | 0.00 | 0.00 | 0.00 | 93 | 1015.2 |
| 20260507031803 | 5 | 0 | 0.0 | 0.0 | 0.00 | 0.00 | 0.00 | 92 | 1015.2 |
| 20260507030903 | 5 | 0 | 0.0 | 0.0 | 0.00 | 0.00 | 0.00 | 92 | 1015.1 |
| 20260507030003 | 6 | 0 | 0.0 | 0.0 | 0.00 | 0.00 | 0.00 | 92 | 1015.2 |
| 20260507025403 | 5 | 0 | 0.0 | 0.0 | 0.00 | 0.00 | 0.00 | 92 | 1015.1 |
| 20260507024524 | 6 | 0 | 0.0 | 0.0 | 0.00 | 0.00 | 0.00 | 92 | 1014.9 |
| 20260507023603 | 6 | 0 | 0.0 | 0.0 | 0.00 | 0.00 | 0.00 | 91 | 1015.1 |
| 20260507022703 | 6 | 0 | 0.0 | 0.0 | 0.00 | 0.00 | 0.00 | 91 | 1015.2 |
| 20260507021803 | 6 | 0 | 0.0 | 0.0 | 0.00 | 0.00 | 0.00 | 91 | 1015.1 |
| 20260507020903 | 6 | 0 | 0.0 | 0.0 | 0.00 | 0.00 | 0.00 | 90 | 1014.9 |
| 20260507020003 | 6 | 0 | 0.0 | 0.0 | 0.00 | 0.00 | 0.00 | 90 | 1015.0 |
| 20260507015424 | 6 | 0 | 0.0 | 0.0 | 0.00 | 0.00 | 0.00 | 90 | 1015.0 |
| 20260507014503 | 6 | 0 | 0.0 | 0.0 | 0.00 | 0.00 | 0.00 | 89 | 1015.0 |
| 20260507013603 | 6 | 0 | 0.0 | 0.0 | 0.00 | 0.00 | 0.00 | 89 | 1015.1 |
| 20260507012724 | 6 | 0 | 0.0 | 0.0 | 0.00 | 0.00 | 0.00 | 88 | 1014.9 |
| 20260507011803 | 6 | 0 | 0.0 | 0.0 | 0.00 | 0.00 | 0.00 | 88 | 1014.9 |
| 20260507010903 | 6 | 0 | 0.0 | 0.0 | 0.00 | 0.00 | 0.00 | 88 | 1014.8 |
| 20260507010003 | 6 | 0 | 0.0 | 0.0 | 0.00 | 0.00 | 0.00 | 87 | 1014.9 |
| 20260507005403 | 6 | 0 | 0.0 | 0.0 | 0.00 | 0.00 | 0.00 | 87 | 1015.1 |